Volver al catálogo

STARLINK-37441

ActivoComunicacionesSSO
NORAD 68858·PAYLOAD·🇺🇸 United States

Lanzado Apr 26, 2026 desde Vandenberg Space Force Base

Loading…

Próximos Pases (próximas 24 horas)

TLE

ActualizadoSource: CelesTrak SupGP

Época: Sep 14, 2026, 22:54 UTC

1 68858C 26094V   26257.95465278  .00032272  00000+0  10018-2 0  2578
2 68858  97.2836 271.2055 0001586  88.4400 173.0698 15.33422908    10

Sigue STARLINK-37441 en tiempo real con AllMySat

Download on the App Store